Probability
68 29 26 0 0 0 0 0 0 0 0 0 0 0 0 0 0 0 0 3 6 19 45 61 68 58 55 52 45 42 45 55 58 58 65 65 61 65 65 68 71 65 65 71 74 81 77 84 87
42 29 6 0 0 0 0 0 0 0 0 0 3 3 0 0 0 0 0 3 6 29 35 48 65 61 58 58 52 45 45 45 48 45 42 42 45 52 55 65 71 65 61 58 61 71 71 84 84
42 32 6 0 0 0 0 0 0 0 0 0 6 3 3 3 0 0 0 3 16 26 29 45 61 55 52 48 45 39 39 42 42 35 32 32 32 32 39 48 55 58 55 58 58 61 68 81 81
39 13 0 0 0 0 0 0 0 0 0 3 3 3 3 3 3 0 0 6 16 16 26 35 55 42 35 35 29 26 32 26 29 29 29 26 26 26 32 35 35 39 42 48 58 65 61 65 68
13 3 0 0 0 0 0 0 0 0 0 3 3 3 3 3 3 3 0 3 13 16 23 35 42 35 32 35 29 26 19 26 13 13 10 13 19 26 29 29 29 32 35 39 45 58 61 55 58
3 0 0 0 0 0 0 0 0 0 0 3 3 3 3 3 3 6 3 3 6 10 16 23 35 32 29 26 23 16 10 6 10 6 6 10 16 19 16 19 19 23 26 23 39 42 39 55 65
0 0 0 0 0 0 0 0 0 0 0 3 3 3 3 3 3 3 0 6 6 10 13 16 16 16 23 23 16 16 10 10 10 0 3 6 3 3 3 3 6 10 6 23 26 32 39 45 58
3 0 0 0 0 0 0 0 0 0 0 0 0 3 3 3 0 0 0 6 3 3 3 6 10 10 6 13 19 16 10 3 0 0 0 0 0 0 0 3 3 6 10 16 26 29 29 32 39
3 0 0 0 0 0 0 0 0 0 0 0 0 0 0 0 0 0 0 0 0 0 0 0 6 3 3 0 0 3 3 3 0 0 0 0 0 0 0 0 0 0 6 10 16 23 26 29 35
3 0 0 0 0 0 3 3 0 0 0 0 0 0 0 0 0 0 0 0 0 0 0 0 0 3 0 0 0 0 0 0 0 0 0 0 0 0 0 0 0 3 6 6 10 16 13 13 3
3 0 0 0 0 0 6 3 0 0 0 0 0 0 0 0 0 0 0 0 0 0 0 0 0 0 0 0 0 0 0 0 0 0 0 0 0 0 0 0 0 0 0 0 3 3 6 0 0
10 10 6 3 0 3 3 0 0 0 0 0 0 0 0 0 0 0 0 0 0 0 0 0 0 0 0 0 0 0 0 0 0 0 0 0 0 0 0 0 0 0 0 0 0 0 0 0 0
3 0 3 3 0 0 3 3 0 0 0 0 0 0 0 0 0 0 0 0 0 0 0 0 0 0 0 0 0 0 0 0 0 0 0 0 0 0 0 0 0 0 0 0 0 0 0 0 0
6 3 0 0 0 0 0 0 0 0 0 0 0 0 0 0 0 0 0 0 0 0 0 0 0 0 0 0 0 0 0 0 0 0 0 0 0 0 0 0 0 0 0 0 0 0 0 0 0
6 3 0 0 0 0 0 0 0 0 0 0 0 0 0 0 0 0 0 0 0 0 0 0 0 0 0 0 0 0 0 0 0 0 0 0 0 0 0 0 0 0 0 0 0 0 0 0 0
0 0 0 0 0 0 0 0 0 0 0 0 0 0 0 0 0 0 0 0 0 0 0 0 0 0 0 0 0 0 0 0 0 0 0 0 0 0 0 0 0 0 0 0 0 0 0 0 0
0 0 0 0 0 0 0 0 0 0 3 0 0 0 0 0 0 0 0 0 0 0 0 0 0 0 0 0 0 0 0 0 0 0 0 0 0 0 0 0 0 0 0 0 0 0 0 0 0
0 0 0 0 0 0 0 0 0 0 3 0 0 0 0 0 0 0 0 0 0 0 0 0 0 0 0 0 0 0 0 0 0 0 0 0 0 0 0 0 0 0 0 0 0 0 0 0 0
0 0 0 0 0 0 0 0 0 0 0 0 0 0 0 0 0 0 0 0 0 0 0 0 0 0 0 0 0 0 0 0 0 0 0 0 0 0 0 0 0 0 0 0 0 0 0 0 0
0 0 0 0 0 0 0 0 0 0 0 0 0 0 0 0 0 0 0 0 0 0 0 0 0 0 0 0 0 0 0 0 0 0 0 0 0 0 0 0 0 0 0 0 0 0 0 0 0
0 0 0 0 0 0 0 0 0 0 0 0 0 0 0 0 0 0 0 0 0 0 0 0 0 0 0 0 0 0 0 0 0 0 0 0 0 0 0 0 0 0 0 0 0 0 0 0 0
0 0 0 0 0 0 0 0 0 0 0 0 0 0 0 0 0 0 0 0 0 0 0 0 0 0 0 0 0 0 0 0 0 0 0 0 0 0 0 0 0 0 0 0 0 0 0 0 0
0 0 0 0 0 0 0 0 0 0 0 0 0 0 0 0 0 0 0 0 0 0 0 0 0 0 0 0 0 0 0 0 0 0 0 0 0 0 0 0 0 0 0 0 0 0 0 0 0
0 0 0 0 0 0 0 0 0 0 0 0 0 0 0 0 0 0 0 0 0 0 0 0 0 0 0 0 0 0 0 0 0 0 0 0 0 0 0 0 0 0 0 0 0 0 0 0 0
0 0 0 0 0 0 0 0 0 0 0 0 0 0 0 0 0 0 0 0 0 0 0 0 0 0 0 0 0 0 0 0 0 0 0 0 0 0 0 0 0 0 0 0 0 0 0 0 0
0 0 0 0 0 0 0 0 0 0 0 0 0 0 0 0 0 0 0 0 0 0 0 0 0 0 0 0 0 0 0 0 0 0 0 0 0 0 0 0 0 0 0 0 0 0 0 0 0
0 0 0 0 0 0 0 0 0 0 0 0 0 0 0 0 0 0 0 0 0 0 0 0 0 0 0 0 0 0 0 0 0 0 0 0 0 0 0 0 0 0 0 0 0 0 0 0 0
0 0 0 0 0 0 0 0 0 0 0 0 0 0 0 0 0 0 0 0 0 0 0 0 0 0 0 0 0 0 0 0 0 0 0 0 0 0 0 0 0 0 0 0 0 0 0 0 0
0 0 0 0 0 0 0 0 0 0 0 0 0 0 0 0 0 0 0 0 0 0 0 0 0 0 0 0 0 0 0 0 0 0 0 0 0 0 0 0 0 0 0 0 0 0 0 0 0
0 0 0 0 0 0 0 0 0 0 0 0 0 0 0 0 0 0 0 0 0 0 0 0 0 0 0 0 0 0 0 0 0 0 0 0 0 0 0 0 0 0 0 0 0 0 0 0 0
Height
5858 5858 5858 5859 5860 5859 5858 5859 5858 5858 5858 5858 5858 5859 5860 5861 5863 5866 5864 5863 5863 5863 5863 5863 5863 5863 5862 5862 5861 5861 5860 5860 5859 5859 5858 5858 5857 5857 5857 5857 5857 5858 5858 5859 5859 5860 5861 5862 5863
5857 5857 5858 5859 5858 5858 5859 5858 5858 5857 5857 5857 5857 5858 5859 5860 5861 5862 5862 5862 5862 5862 5862 5862 5862 5861 5861 5860 5860 5859 5858 5858 5857 5856 5856 5855 5855 5854 5854 5854 5855 5855 5855 5855 5856 5857 5857 5858 5860
5855 5856 5857 5857 5857 5858 5858 5857 5857 5856 5856 5856 5857 5857 5858 5859 5860 5860 5861 5861 5861 5861 5861 5861 5861 5860 5860 5859 5858 5857 5856 5855 5855 5854 5853 5852 5852 5852 5851 5851 5851 5852 5852 5852 5853 5853 5854 5855 5856
5854 5855 5856 5857 5856 5857 5857 5857 5856 5856 5855 5856 5856 5857 5857 5858 5859 5859 5860 5860 5860 5860 5860 5860 5859 5859 5858 5857 5856 5855 5854 5853 5852 5851 5850 5850 5849 5848 5848 5848 5848 5848 5848 5849 5849 5850 5850 5852 5853
5852 5853 5855 5855 5855 5856 5856 5856 5856 5855 5855 5855 5855 5856 5857 5858 5858 5858 5859 5859 5859 5859 5859 5859 5858 5857 5857 5856 5855 5853 5852 5851 5850 5849 5848 5847 5846 5846 5845 5844 5844 5844 5844 5845 5845 5846 5846 5847 5849
5850 5851 5853 5853 5853 5854 5854 5854 5854 5854 5854 5854 5855 5856 5856 5857 5857 5857 5858 5858 5858 5858 5858 5857 5857 5856 5855 5854 5853 5852 5851 5849 5848 5847 5845 5844 5843 5843 5842 5841 5841 5840 5840 5841 5841 5841 5842 5843 5845
5848 5849 5850 5851 5851 5852 5853 5853 5853 5853 5853 5854 5854 5855 5855 5856 5856 5856 5856 5857 5856 5856 5856 5856 5855 5855 5854 5853 5851 5850 5849 5848 5846 5844 5843 5842 5841 5840 5839 5838 5837 5837 5837 5837 5837 5837 5838 5839 5841
5844 5846 5847 5848 5849 5851 5851 5851 5851 5852 5852 5853 5853 5853 5854 5855 5855 5855 5855 5855 5855 5855 5855 5855 5854 5854 5853 5852 5850 5849 5848 5846 5844 5843 5841 5840 5838 5837 5836 5834 5834 5833 5833 5833 5833 5833 5834 5835 5836
5841 5844 5844 5845 5847 5848 5849 5849 5850 5850 5851 5851 5852 5852 5853 5853 5854 5854 5854 5854 5854 5854 5854 5854 5853 5852 5851 5850 5849 5848 5846 5844 5843 5841 5839 5837 5835 5834 5832 5831 5830 5829 5829 5828 5828 5829 5829 5830 5832
5838 5840 5841 5843 5844 5845 5846 5847 5848 5849 5849 5850 5850 5851 5851 5852 5852 5853 5853 5853 5854 5854 5853 5853 5852 5852 5850 5849 5848 5846 5844 5843 5841 5839 5837 5835 5833 5831 5829 5828 5826 5825 5825 5824 5824 5824 5825 5826 5827
5834 5836 5838 5840 5841 5842 5844 5845 5846 5847 5848 5849 5849 5850 5850 5850 5851 5851 5852 5852 5853 5853 5853 5852 5852 5851 5850 5848 5847 5845 5843 5841 5839 5836 5834 5832 5830 5828 5826 5824 5822 5821 5820 5820 5819 5820 5820 5821 5822
5831 5833 5835 5837 5838 5840 5841 5842 5844 5845 5846 5847 5847 5848 5849 5849 5850 5850 5851 5851 5852 5852 5852 5851 5851 5850 5849 5847 5845 5843 5841 5839 5836 5834 5831 5829 5827 5825 5822 5820 5818 5817 5816 5815 5815 5815 5815 5816 5818
5827 5830 5832 5833 5835 5837 5839 5840 5842 5843 5844 5845 5846 5847 5847 5848 5849 5849 5850 5851 5851 5851 5851 5851 5850 5849 5847 5846 5844 5842 5840 5837 5834 5832 5829 5826 5824 5821 5819 5817 5814 5813 5811 5810 5810 5810 5810 5811 5813
5825 5827 5829 5830 5832 5834 5836 5838 5840 5841 5843 5844 5845 5845 5846 5847 5848 5849 5849 5850 5850 5850 5850 5850 5849 5848 5846 5845 5843 5840 5838 5835 5832 5829 5826 5824 5821 5818 5815 5813 5811 5809 5807 5806 5805 5805 5806 5806 5808
5822 5825 5827 5828 5830 5832 5835 5836 5838 5839 5841 5842 5843 5844 5845 5846 5847 5848 5848 5849 5849 5849 5849 5848 5848 5846 5845 5843 5841 5839 5836 5833 5830 5827 5824 5821 5818 5815 5812 5810 5807 5805 5803 5801 5801 5801 5801 5802 5803
5820 5823 5826 5827 5829 5831 5834 5835 5837 5838 5839 5841 5842 5843 5844 5845 5846 5847 5847 5848 5848 5848 5848 5847 5846 5845 5844 5842 5839 5837 5834 5831 5828 5825 5822 5819 5816 5812 5809 5806 5803 5801 5799 5798 5797 5796 5796 5797 5798
5818 5821 5824 5826 5827 5829 5831 5833 5835 5836 5838 5839 5840 5842 5843 5844 5845 5846 5846 5847 5847 5847 5847 5846 5845 5844 5842 5840 5838 5835 5832 5829 5826 5823 5820 5816 5813 5810 5807 5803 5800 5798 5796 5794 5793 5792 5792 5792 5793
5817 5819 5822 5825 5827 5828 5830 5832 5834 5835 5837 5838 5839 5840 5841 5843 5844 5845 5845 5846 5846 5846 5845 5845 5844 5842 5840 5838 5836 5834 5831 5828 5824 5821 5817 5814 5811 5807 5804 5800 5797 5795 5792 5790 5789 5788 5788 5788 5789
5815 5818 5821 5823 5825 5827 5829 5831 5833 5834 5835 5837 5838 5839 5840 5841 5843 5843 5844 5844 5845 5844 5844 5843 5842 5841 5839 5837 5835 5832 5829 5826 5823 5819 5816 5812 5809 5805 5801 5798 5795 5792 5789 5787 5785 5784 5784 5784 5785
5815 5818 5820 5822 5824 5827 5828 5830 5832 5833 5834 5835 5836 5838 5839 5840 5841 5842 5843 5843 5843 5843 5842 5842 5841 5839 5837 5835 5833 5831 5828 5825 5822 5818 5814 5810 5807 5803 5799 5796 5792 5789 5786 5784 5782 5781 5781 5781 5782
5814 5817 5819 5822 5824 5825 5828 5830 5831 5832 5833 5834 5835 5837 5838 5839 5840 5841 5841 5842 5842 5841 5841 5840 5839 5838 5836 5834 5832 5830 5827 5823 5820 5817 5813 5809 5805 5801 5798 5794 5790 5787 5784 5782 5780 5778 5778 5778 5779
5815 5817 5819 5821 5824 5825 5828 5829 5831 5831 5832 5833 5834 5835 5837 5838 5839 5840 5840 5840 5840 5840 5839 5839 5837 5836 5835 5833 5831 5828 5826 5823 5819 5816 5812 5808 5804 5800 5796 5793 5789 5786 5783 5780 5778 5776 5776 5776 5776
5815 5818 5820 5822 5824 5826 5827 5829 5831 5831 5832 5833 5833 5834 5836 5837 5837 5838 5839 5838 5838 5838 5838 5837 5836 5835 5833 5831 5829 5827 5825 5822 5818 5815 5811 5807 5804 5800 5795 5792 5788 5785 5782 5779 5777 5775 5774 5774 5774
5816 5819 5820 5822 5824 5826 5827 5829 5830 5830 5831 5832 5833 5834 5834 5835 5836 5837 5837 5837 5836 5836 5836 5835 5834 5833 5832 5830 5828 5826 5823 5820 5817 5814 5810 5807 5803 5799 5795 5791 5787 5784 5781 5778 5776 5774 5773 5773 5773
5818 5820 5822 5823 5825 5827 5828 5829 5830 5830 5831 5831 5832 5833 5834 5834 5835 5835 5835 5835 5835 5835 5834 5834 5833 5832 5830 5829 5827 5825 5822 5819 5816 5813 5810 5806 5803 5799 5795 5791 5787 5784 5780 5778 5775 5774 5773 5772 5772
5819 5821 5824 5825 5826 5827 5828 5829 5830 5830 5830 5831 5832 5832 5833 5833 5833 5833 5833 5833 5833 5833 5832 5832 5831 5830 5828 5827 5825 5823 5821 5818 5815 5812 5809 5806 5802 5798 5795 5790 5787 5783 5780 5777 5775 5773 5772 5771 5771
5820 5822 5824 5825 5826 5827 5828 5829 5830 5830 5830 5830 5831 5831 5832 5832 5832 5832 5832 5832 5831 5831 5830 5830 5829 5828 5826 5825 5824 5822 5819 5817 5814 5811 5808 5805 5802 5798 5794 5791 5787 5783 5780 5777 5775 5773 5772 5771 5770
5822 5823 5824 5826 5826 5827 5828 5829 5830 5829 5829 5830 5830 5830 5830 5830 5830 5830 5830 5829 5829 5829 5828 5827 5827 5826 5825 5823 5822 5820 5818 5816 5813 5811 5808 5805 5801 5798 5794 5791 5787 5784 5781 5778 5775 5773 5772 5770 5770
5823 5824 5824 5825 5826 5828 5828 5831 5829 5829 5829 5829 5829 5829 5829 5828 5828 5828 5828 5827 5827 5826 5826 5825 5824 5823 5822 5821 5820 5818 5816 5814 5812 5809 5807 5804 5801 5798 5794 5791 5788 5785 5781 5779 5776 5774 5772 5771 5769
5823 5824 5825 5826 5827 5827 5828 5831 5828 5828 5828 5828 5827 5827 5827 5827 5826 5825 5825 5824 5824 5824 5823 5822 5822 5821 5820 5819 5817 5816 5814 5812 5810 5808 5805 5803 5800 5797 5794 5791 5788 5785 5782 5779 5776 5774 5772 5771 5769
Wind_Speed
8 7 7 6 6 6 6 5 4 4 4 4 6 6 5 4 4 4 4 4 3 4 5 6 6 6 7 8 8 9 10 11 12 13 14 14 15 16 16 16 16 17 17 18 18 18 18 17 17
10 9 8 7 7 6 6 5 4 5 4 4 5 5 4 3 3 3 3 3 4 5 5 6 6 6 7 8 9 10 11 12 13 14 15 15 16 17 17 17 17 17 18 19 19 19 19 18 18
10 9 8 8 8 7 6 5 4 5 5 4 4 4 4 3 3 3 3 3 3 4 4 5 6 7 8 9 11 11 12 13 14 15 15 16 16 17 18 18 18 18 19 19 20 20 20 19 18
11 10 9 9 9 8 7 6 5 5 4 4 4 4 4 3 3 3 3 3 3 4 4 5 6 7 8 9 11 11 12 13 13 14 15 15 16 16 17 18 19 20 20 20 21 22 22 20 19
13 11 11 10 9 8 7 7 6 4 4 3 4 4 3 4 3 3 3 3 4 4 5 6 7 8 9 10 10 11 11 11 12 13 13 14 14 15 16 17 18 19 20 21 22 22 22 21 20
15 13 13 11 10 9 8 7 6 6 5 4 3 3 4 4 4 3 4 4 5 5 6 7 7 7 8 9 9 9 10 10 11 12 12 13 13 15 16 17 18 19 19 20 21 22 22 21 21
17 16 14 12 11 10 8 7 7 6 5 5 4 4 4 4 4 4 4 4 5 5 6 6 5 6 7 8 8 9 9 10 11 12 12 13 14 14 15 16 17 17 18 19 20 21 21 21 22
18 17 16 14 12 11 9 8 9 7 6 5 5 5 5 5 5 5 5 4 5 5 5 4 4 5 6 7 8 8 10 10 11 12 13 13 14 14 15 15 16 17 17 18 19 19 20 21 21
19 18 17 15 14 13 11 10 9 8 7 6 5 6 5 6 6 6 5 4 3 3 3 2 4 5 6 7 8 9 10 11 12 13 13 14 14 14 15 15 16 17 17 18 19 19 19 20 20
20 19 18 16 15 14 12 11 10 8 8 7 7 6 6 6 6 5 5 4 3 3 2 2 3 5 6 8 9 10 11 12 13 13 14 14 15 15 15 15 16 16 17 18 19 19 20 20 20
20 20 19 17 16 15 13 12 11 9 8 8 7 6 5 5 5 5 4 4 3 2 2 2 4 5 6 8 10 11 12 12 13 14 15 15 15 15 16 16 16 17 17 18 19 19 20 20 20
21 20 19 17 17 15 13 12 11 10 8 7 7 6 5 5 5 5 5 4 2 2 2 2 4 5 7 9 10 11 12 13 14 15 15 15 16 16 16 16 17 17 17 17 18 18 19 20 20
20 19 19 19 18 16 14 13 11 10 8 7 7 7 6 6 5 5 4 4 3 2 2 3 4 6 7 9 11 12 13 14 14 15 15 16 16 17 17 16 16 17 17 17 17 17 18 19 20
19 19 18 17 16 14 14 14 12 10 8 8 8 7 6 6 5 5 5 4 4 3 3 3 5 6 8 10 11 12 13 14 15 15 15 16 16 17 17 17 16 16 16 16 16 16 17 18 19
18 17 16 16 15 14 12 12 11 10 9 9 8 8 7 7 7 6 6 5 4 3 3 4 5 6 8 10 11 13 13 14 15 16 16 16 16 16 17 17 16 16 15 15 15 16 16 17 18
17 17 15 14 13 12 12 10 10 9 9 9 9 8 7 7 7 7 6 6 4 3 3 4 5 6 8 10 12 13 14 15 16 16 16 16 17 17 17 17 16 15 15 15 15 15 15 16 17
16 16 15 13 12 10 10 10 9 9 9 9 9 9 8 8 7 7 7 6 4 3 3 4 5 6 8 10 12 14 14 15 16 17 17 17 17 17 17 17 17 16 15 14 14 14 14 14 16
14 14 13 12 11 10 9 8 8 7 8 10 10 9 9 9 8 7 7 6 5 4 4 4 6 7 8 10 12 14 15 16 17 17 18 17 18 18 18 17 17 16 15 13 13 13 13 13 14
11 11 11 11 10 10 9 8 8 7 7 9 10 10 9 9 8 7 6 6 4 4 4 5 6 7 8 10 12 14 15 17 17 18 18 18 18 18 18 17 17 16 15 13 12 12 12 12 13
10 10 10 9 10 9 8 8 7 7 7 8 9 10 10 9 8 7 6 5 4 4 5 5 6 7 8 10 12 14 15 17 18 18 18 18 18 18 18 17 16 16 14 13 12 11 10 11 11
10 9 9 9 9 8 8 7 7 7 7 8 9 9 9 9 8 8 7 6 5 5 5 5 6 7 8 10 11 13 15 17 17 17 18 19 19 18 18 17 16 15 14 13 11 10 9 9 10
11 10 9 8 9 9 8 6 6 5 6 8 9 10 9 9 9 8 7 6 5 5 6 6 6 7 8 10 11 13 15 16 17 17 18 18 18 18 18 17 16 15 13 12 11 9 8 8 9
11 10 9 8 8 8 7 6 5 5 7 7 8 9 9 8 8 8 7 7 6 6 6 6 6 7 8 9 11 13 14 16 17 17 17 18 18 19 18 17 16 15 13 12 11 8 7 6 7
10 10 9 8 8 7 6 6 5 5 6 6 7 8 8 8 8 8 8 7 7 6 6 7 7 7 8 9 11 13 14 15 16 17 17 17 18 19 18 17 16 15 14 12 10 8 6 5 5
10 10 9 9 7 6 6 5 4 4 5 5 6 7 7 8 8 8 7 7 8 7 7 7 7 8 8 9 11 12 14 15 16 16 16 17 18 18 19 17 16 15 14 12 10 8 6 5 5
9 9 8 7 6 6 5 4 4 4 4 5 5 6 6 6 7 7 8 8 8 8 8 8 8 8 9 10 11 12 13 14 15 15 16 16 17 18 18 18 16 15 14 12 10 8 6 5 4
9 8 6 6 5 5 5 4 4 3 3 4 5 5 6 6 7 8 8 8 8 8 8 8 9 9 9 10 11 12 13 14 14 15 15 16 16 17 18 18 17 15 14 12 10 9 7 5 4
7 6 5 4 4 4 4 3 3 3 3 4 5 5 6 6 7 8 8 8 8 9 9 9 9 10 10 11 11 12 12 13 14 14 15 15 16 16 16 17 17 16 14 13 11 9 7 6 4
5 5 4 3 3 3 3 2 2 2 3 3 4 6 6 7 8 9 9 10 10 10 10 10 10 11 11 11 11 12 12 13 13 14 14 15 15 15 15 16 16 15 14 13 11 9 8 7 4
4 3 3 3 3 3 3 2 3 3 4 4 5 6 8 8 9 10 10 11 11 11 11 12 11 12 12 12 12 12 12 13 13 13 14 14 14 14 15 15 15 14 14 13 11 10 8 7 5
Wind_Direction
282 293 297 296 297 311 319 318 298 287 278 269 249 236 236 245 253 258 265 276 288 294 295 293 297 303 304 304 305 303 295 294 293 291 290 286 280 278 278 276 276 273 271 270 267 265 266 266 267
273 283 285 289 301 312 318 313 304 286 274 265 254 240 237 250 262 264 268 279 285 291 296 294 296 301 303 306 307 303 300 298 297 294 291 288 284 280 278 276 276 274 272 271 270 268 265 264 266
265 270 275 284 293 300 304 301 298 295 265 248 239 237 238 253 267 271 275 283 286 291 293 292 296 301 305 305 306 306 304 301 299 296 292 290 288 285 281 277 275 273 272 272 273 270 267 264 264
259 259 267 277 288 300 300 293 288 291 267 245 234 227 236 249 261 271 279 282 283 287 292 297 302 306 309 310 310 310 308 306 303 300 295 291 289 287 283 278 275 273 271 271 272 270 267 263 262
256 255 261 271 282 292 293 285 280 269 271 247 219 216 234 245 256 266 271 276 282 288 293 298 302 306 310 312 314 315 313 311 308 305 301 297 293 290 286 283 278 276 273 271 269 269 267 262 259
252 252 258 265 272 281 286 279 270 262 267 252 232 227 235 247 253 262 263 270 279 285 291 297 301 309 315 319 321 321 320 319 316 313 309 303 297 292 288 285 282 279 276 272 270 269 265 263 260
245 249 253 259 266 271 274 269 262 261 255 244 237 240 242 250 260 257 257 272 280 288 296 306 311 319 324 327 330 330 328 326 324 320 316 311 304 298 292 287 283 280 277 274 272 269 267 263 260
242 247 250 253 261 263 260 258 258 249 244 240 242 242 243 251 256 258 263 269 274 283 297 314 326 328 333 336 336 333 331 329 326 322 318 315 310 304 298 291 286 281 277 273 271 269 268 264 260
239 244 247 247 252 254 251 253 257 248 241 236 243 249 252 252 255 260 265 259 263 276 298 325 336 339 340 338 335 333 332 329 326 323 320 316 312 309 303 297 291 285 279 273 270 268 266 264 260
236 240 243 244 246 244 242 244 250 244 241 240 246 249 259 257 254 256 257 252 251 255 289 330 341 342 339 337 335 334 331 328 327 324 320 317 313 310 306 300 295 288 282 276 271 266 264 263 259
235 239 243 243 243 242 241 241 246 241 236 239 245 248 255 253 248 247 236 233 233 252 302 334 341 337 338 339 338 335 331 329 327 325 322 319 315 311 307 301 296 290 285 279 274 268 263 261 258
234 238 242 241 242 243 242 244 244 242 239 241 243 242 242 252 253 235 220 220 223 256 295 320 332 334 339 340 338 336 332 330 328 325 323 320 317 313 309 304 299 293 288 283 277 270 262 258 255
232 235 241 244 242 240 238 237 234 234 240 238 237 235 233 242 240 236 222 226 233 251 277 306 323 333 339 340 338 334 333 332 331 328 325 322 320 317 314 310 305 299 292 286 279 271 264 258 254
232 236 241 240 237 230 230 226 225 229 233 231 230 229 230 234 227 220 221 223 223 238 269 302 321 331 335 337 338 337 335 335 334 332 329 327 324 322 319 314 309 304 297 289 281 272 265 258 253
228 233 238 238 234 228 229 224 223 224 226 227 229 227 229 229 221 218 218 219 223 235 267 301 318 327 334 336 339 340 341 339 337 336 334 332 328 326 324 320 314 309 301 293 285 275 267 259 253
226 225 230 233 226 224 228 224 221 218 221 224 226 225 224 220 216 212 214 217 222 243 287 314 321 329 337 341 343 345 346 344 341 338 336 334 333 331 328 326 320 314 306 296 288 279 268 261 254
222 222 225 229 225 224 220 218 224 223 225 227 227 226 219 214 215 212 211 212 219 248 292 315 323 333 341 345 348 349 349 346 344 342 339 337 335 333 331 329 326 320 312 301 290 282 271 263 255
216 218 218 221 222 220 216 214 219 225 229 228 226 225 218 214 211 213 213 214 225 256 289 310 323 332 339 345 349 350 349 347 346 344 342 340 339 336 333 331 329 325 317 307 296 285 273 264 256
207 208 210 219 217 212 216 218 222 229 230 228 222 217 215 211 208 214 216 221 236 266 291 309 322 333 341 346 350 351 350 348 347 345 344 343 341 338 335 333 332 329 323 314 302 290 276 267 258
202 206 210 211 207 205 211 215 222 230 233 230 220 214 208 206 211 218 221 228 247 273 291 306 321 333 340 345 349 350 350 349 348 347 346 345 343 342 340 338 335 332 328 320 311 297 282 270 258
183 189 187 189 191 197 204 210 217 225 227 220 213 211 205 209 215 224 226 234 251 273 289 303 320 331 339 344 348 349 350 350 349 349 349 348 346 345 345 343 341 337 333 328 319 307 288 272 260
170 172 171 175 182 188 196 201 206 214 217 213 206 204 204 211 219 227 229 241 255 273 287 301 316 327 336 342 346 348 350 350 349 349 351 351 349 349 348 347 347 345 341 337 330 317 296 275 261
166 168 172 172 175 186 196 201 200 210 214 211 206 205 208 214 222 230 236 245 258 271 286 299 310 320 330 337 342 346 347 349 349 349 351 352 351 351 350 349 350 349 346 341 336 328 309 285 263
162 168 169 170 170 172 176 191 197 203 209 210 210 210 211 216 223 233 244 253 261 270 283 297 306 314 324 332 338 342 345 347 349 350 350 351 352 353 352 351 352 351 349 345 340 333 320 298 271
153 157 159 164 166 159 165 179 187 202 214 218 216 216 218 222 229 241 253 261 265 270 280 292 301 310 319 327 333 338 342 346 348 350 350 350 352 354 355 355 353 353 352 349 345 337 328 307 284
152 155 156 161 161 158 167 171 185 204 224 226 223 226 231 237 241 249 259 266 270 274 280 288 296 304 312 320 328 334 339 343 346 348 349 351 352 354 356 359 357 354 354 354 350 344 332 311 289
147 151 152 160 165 171 171 174 187 205 222 226 229 234 244 252 253 255 261 268 274 278 283 290 295 299 305 313 321 327 333 338 342 345 348 350 353 355 357 1 2 359 359 357 356 353 344 328 302
147 151 154 168 178 179 173 179 195 214 243 245 241 245 255 261 261 262 267 272 278 282 286 291 293 295 299 306 314 321 328 333 337 340 344 348 351 354 357 1 4 4 3 2 359 360 358 345 323
156 163 167 169 182 187 189 215 238 254 254 259 250 252 260 265 266 266 270 274 279 283 287 291 292 293 295 300 308 315 322 327 332 335 339 343 347 351 355 358 1 3 3 2 1 360 0 355 342
169 177 189 202 202 218 235 255 260 271 272 275 271 266 267 271 273 273 274 276 279 283 286 289 291 293 293 296 302 308 314 319 324 329 333 337 341 345 350 353 356 359 1 1 359 358 357 355 345